| time (UTC) | temp F | wind direction | speed knots | gust knots | rain 1hr in | rain 24hr in | rain mn in | humidity % | barometer mb |
| 20260509185525 | 58 | 232 | 1.7 | 10.4 | 0.00 | 0.48 | 0.28 | 88 | |
| 20260509185005 | 57 | 229 | 1.7 | 10.4 | 0.00 | 0.48 | 0.28 | 89 | |
| 20260509184504 | 57 | 227 | 2.6 | 6.1 | 0.00 | 0.48 | 0.28 | 90 | |
| 20260509184004 | 57 | 223 | 3.5 | 6.1 | 0.00 | 0.48 | 0.28 | 91 | |
| 20260509183525 | 56 | 219 | 4.3 | 6.1 | 0.00 | 0.48 | 0.28 | 90 | |
| 20260509183005 | 56 | 215 | 4.3 | 8.7 | 0.00 | 0.48 | 0.28 | 90 | |
| 20260509182505 | 56 | 213 | 4.3 | 8.7 | 0.00 | 0.47 | 0.27 | 89 | |
| 20260509182004 | 57 | 209 | 4.3 | 7.0 | 0.00 | 0.47 | 0.27 | 89 | |
| 20260509181504 | 57 | 213 | 4.3 | 7.0 | 0.00 | 0.47 | 0.27 | 89 | |
| 20260509181005 | 57 | 221 | 4.3 | 8.7 | 0.00 | 0.47 | 0.27 | 90 | |
| 20260509180505 | 57 | 227 | 3.5 | 8.7 | 0.00 | 0.47 | 0.27 | 90 | |
| 20260509153004 | 52 | 220 | 2.6 | 9.6 | 0.01 | 0.41 | 0.21 | 95 | 1010.6 |
| 20260509152504 | 52 | 227 | 1.7 | 9.6 | 0.02 | 0.41 | 0.21 | 95 | 1010.6 |
| 20260509152005 | 52 | 225 | 1.7 | 9.6 | 0.03 | 0.41 | 0.21 | 95 | 1010.6 |
| 20260509151505 | 52 | 226 | 2.6 | 5.2 | 0.03 | 0.41 | 0.21 | 95 | 1010.6 |
| 20260509151005 | 52 | 225 | 2.6 | 9.6 | 0.03 | 0.41 | 0.21 | 95 | 1010.6 |
| 20260509150505 | 52 | 222 | 2.6 | 9.6 | 0.04 | 0.41 | 0.21 | 95 | 1010.6 |
| 20260509150004 | 52 | 227 | 2.6 | 7.8 | 0.05 | 0.41 | 0.21 | 95 | 1010.6 |
| 20260509145504 | 52 | 232 | 3.5 | 7.8 | 0.05 | 0.41 | 0.21 | 95 | 1010.6 |
| 20260509145005 | 52 | 222 | 3.5 | 13.0 | 0.05 | 0.41 | 0.21 | 95 | 1010.6 |
| 20260509144505 | 52 | 218 | 3.5 | 13.0 | 0.06 | 0.41 | 0.21 | 95 | 1010.6 |
| 20260509144004 | 52 | 218 | 3.5 | 7.8 | 0.06 | 0.41 | 0.21 | 95 | 1010.6 |
| 20260509143504 | 52 | 218 | 3.5 | 7.8 | 0.06 | 0.40 | 0.20 | 95 | 1010.6 |
| 20260509143005 | 51 | 220 | 3.5 | 7.8 | 0.06 | 0.40 | 0.20 | 95 | 1010.6 |
| 20260509142504 | 51 | 224 | 3.5 | 7.0 | 0.06 | 0.39 | 0.19 | 95 | 1010.6 |
| 20260509142005 | 51 | 217 | 4.3 | 10.4 | 0.05 | 0.38 | 0.18 | 95 | 1010.6 |
| 20260509141504 | 51 | 215 | 4.3 | 10.4 | 0.05 | 0.38 | 0.18 | 95 | 1010.6 |
| 20260509141004 | 51 | 220 | 3.5 | 8.7 | 0.06 | 0.38 | 0.18 | 95 | 1010.6 |
| 20260509140504 | 51 | 223 | 3.5 | 8.7 | 0.05 | 0.37 | 0.17 | 95 | 1010.6 |
| 20260509140005 | 51 | 222 | 2.6 | 7.8 | 0.04 | 0.36 | 0.16 | 95 | 1010.6 |
| 20260509135505 | 51 | 219 | 2.6 | 7.8 | 0.04 | 0.36 | 0.16 | 95 | 1010.6 |
| 20260509135004 | 51 | 220 | 3.5 | 7.0 | 0.04 | 0.36 | 0.16 | 95 | 1010.6 |
| 20260509134525 | 51 | 219 | 3.5 | 9.6 | 0.04 | 0.35 | 0.15 | 95 | 1010.6 |
| 20260509134005 | 51 | 219 | 3.5 | 9.6 | 0.04 | 0.35 | 0.15 | 95 | 1010.6 |
| 20260509133504 | 51 | 224 | 3.5 | 7.8 | 0.04 | 0.34 | 0.14 | 95 | 1010.6 |
| 20260509133004 | 51 | 222 | 2.6 | 9.6 | 0.04 | 0.34 | 0.14 | 95 | 1010.6 |
| 20260509132505 | 51 | 219 | 2.6 | 9.6 | 0.03 | 0.33 | 0.13 | 95 | 1010.6 |
| 20260509132004 | 51 | 225 | 2.6 | 7.0 | 0.03 | 0.33 | 0.13 | 95 | 1010.6 |
| 20260509131505 | 51 | 232 | 2.6 | 7.0 | 0.03 | 0.33 | 0.13 | 96 | 1010.6 |
| 20260509131005 | 51 | 229 | 1.7 | 7.0 | 0.03 | 0.32 | 0.12 | 96 | 1010.6 |
| 20260509130525 | 50 | 229 | 1.7 | 7.0 | 0.03 | 0.32 | 0.12 | 96 | 1010.6 |
| 20260509130004 | 50 | 228 | 1.7 | 7.0 | 0.03 | 0.32 | 0.12 | 96 | 1010.6 |
| 20260509125526 | 50 | 228 | 1.7 | 7.0 | 0.03 | 0.32 | 0.12 | 95 | 1010.6 |
| 20260509125004 | 50 | 235 | 1.7 | 9.6 | 0.03 | 0.32 | 0.12 | 95 | 1010.6 |
| 20260509124504 | 50 | 224 | 1.7 | 9.6 | 0.03 | 0.31 | 0.11 | 95 | 1010.6 |
| 20260509124025 | 50 | 223 | 1.7 | 5.2 | 0.03 | 0.31 | 0.11 | 96 | 1010.6 |
| 20260509123504 | 50 | 223 | 1.7 | 6.1 | 0.02 | 0.30 | 0.10 | 96 | 1010.6 |
| 20260509123005 | 50 | 226 | 1.7 | 6.1 | 0.02 | 0.30 | 0.10 | 96 | 1010.6 |
| 20260509122505 | 50 | 231 | 0.9 | 5.2 | 0.02 | 0.30 | 0.10 | 95 | 1010.6 |
| 20260509122004 | 50 | 223 | 1.7 | 5.2 | 0.02 | 0.30 | 0.10 | 95 | 1010.6 |
| 20260509121526 | 50 | 227 | 1.7 | 5.2 | 0.02 | 0.30 | 0.10 | 95 | 1010.6 |
| 20260509121004 | 49 | 221 | 1.7 | 7.0 | 0.01 | 0.29 | 0.09 | 96 | 1010.6 |
| 20260509120525 | 49 | 221 | 1.7 | 7.0 | 0.01 | 0.29 | 0.09 | 96 | 1010.6 |
| 20260509120004 | 49 | 231 | 0.9 | 4.3 | 0.01 | 0.29 | 0.09 | 95 | 1010.6 |
| 20260509115525 | 49 | 229 | 0.9 | 5.2 | 0.01 | 0.29 | 0.09 | 95 | 1010.6 |
| 20260509115004 | 49 | 231 | 0.9 | 6.1 | 0.02 | 0.29 | 0.09 | 95 | 1010.6 |
| 20260509114525 | 49 | 243 | 0.0 | 6.1 | 0.01 | 0.28 | 0.08 | 95 | 1010.6 |
| 20260509114005 | 48 | 246 | 0.0 | 4.3 | 0.01 | 0.28 | 0.08 | 95 | 1010.6 |
| 20260509113504 | 48 | 254 | 0.0 | 4.3 | 0.01 | 0.28 | 0.08 | 95 | 1010.6 |
| 20260509113005 | 48 | 304 | 0.0 | 1.7 | 0.01 | 0.28 | 0.08 | 95 | 1010.6 |
| 20260509112505 | 48 | 311 | 0.0 | 1.7 | 0.01 | 0.28 | 0.08 | 95 | 1010.6 |
| 20260509112005 | 48 | 294 | 0.0 | 0.9 | 0.01 | 0.28 | 0.08 | 95 | 1010.6 |
| 20260509111504 | 48 | 0 | 0.0 | 0.0 | 0.01 | 0.28 | 0.08 | 95 | 1010.6 |
| 20260509111005 | 48 | 0 | 0.0 | 0.0 | 0.02 | 0.28 | 0.08 | 95 | 1010.6 |
| 20260509110505 | 48 | 0 | 0.0 | 0.0 | 0.02 | 0.28 | 0.08 | 95 | 1010.6 |
| 20260509110005 | 48 | 0 | 0.0 | 0.0 | 0.02 | 0.28 | 0.08 | 95 | 1010.6 |
| 20260509105504 | 48 | 0 | 0.0 | 0.0 | 0.02 | 0.28 | 0.08 | 95 | 1010.6 |
| 20260509105026 | 48 | 0 | 0.0 | 0.0 | 0.02 | 0.27 | 0.07 | 95 | 1010.6 |
| 20260509104504 | 48 | 0 | 0.0 | 0.0 | 0.02 | 0.27 | 0.07 | 95 | 1010.6 |
| 20260509104005 | 48 | 0 | 0.0 | 0.0 | 0.02 | 0.27 | 0.07 | 95 | 1010.6 |
| 20260509103525 | 48 | 0 | 0.0 | 0.0 | 0.02 | 0.27 | 0.07 | 95 | 1010.6 |
| 20260509103004 | 48 | 0 | 0.0 | 0.0 | 0.02 | 0.27 | 0.07 | 95 | 1010.6 |
| 20260509102504 | 48 | 0 | 0.0 | 0.0 | 0.03 | 0.27 | 0.07 | 95 | 1010.6 |
| 20260509102004 | 48 | 117 | 0.0 | 1.7 | 0.03 | 0.27 | 0.07 | 95 | 1010.6 |
| 20260509101504 | 48 | 117 | 0.0 | 1.7 | 0.03 | 0.27 | 0.07 | 95 | 1010.6 |
| 20260509101026 | 48 | 0 | 0.0 | 0.0 | 0.02 | 0.26 | 0.06 | 95 | 1010.6 |
| 20260509100504 | 47 | 0 | 0.0 | 0.0 | 0.02 | 0.26 | 0.06 | 95 | 1010.6 |
| 20260509100005 | 47 | 0 | 0.0 | 0.0 | 0.03 | 0.26 | 0.06 | 95 | 1010.6 |
| 20260509095504 | 47 | 0 | 0.0 | 0.0 | 0.03 | 0.26 | 0.06 | 95 | 1010.6 |
| 20260509095004 | 47 | 0 | 0.0 | 0.0 | 0.02 | 0.25 | 0.05 | 95 | 1010.6 |
| 20260509094525 | 47 | 320 | 0.0 | 1.7 | 0.02 | 0.26 | 0.05 | 95 | 1010.6 |
| 20260509094004 | 47 | 321 | 0.0 | 1.7 | 0.02 | 0.26 | 0.05 | 95 | 1010.6 |
| 20260509093504 | 47 | 321 | 0.0 | 1.7 | 0.02 | 0.26 | 0.05 | 95 | 1010.6 |
| 20260509093004 | 47 | 0 | 0.0 | 0.0 | 0.03 | 0.26 | 0.05 | 95 | 1010.6 |
| 20260509092504 | 47 | 0 | 0.0 | 0.0 | 0.02 | 0.25 | 0.04 | 95 | 1010.6 |
| 20260509092026 | 47 | 0 | 0.0 | 0.0 | 0.02 | 0.25 | 0.04 | 95 | 1010.6 |
| 20260509091504 | 47 | 0 | 0.0 | 0.0 | 0.02 | 0.25 | 0.04 | 95 | 1010.6 |
| 20260509091004 | 47 | 0 | 0.0 | 0.0 | 0.02 | 0.25 | 0.04 | 95 | 1010.6 |
| 20260509090505 | 47 | 0 | 0.0 | 0.0 | 0.02 | 0.25 | 0.04 | 95 | 1010.6 |
| 20260509090005 | 47 | 0 | 0.0 | 0.0 | 0.01 | 0.24 | 0.03 | 95 | 1010.6 |
| 20260509085525 | 47 | 0 | 0.0 | 0.0 | 0.01 | 0.24 | 0.03 | 95 | 1010.6 |
| 20260509085025 | 47 | 0 | 0.0 | 0.0 | 0.01 | 0.24 | 0.03 | 95 | 1010.6 |
| 20260509084504 | 47 | 0 | 0.0 | 0.0 | 0.01 | 0.24 | 0.03 | 94 | 1010.6 |
| 20260509084004 | 47 | 0 | 0.0 | 0.0 | 0.01 | 0.24 | 0.03 | 95 | 1010.6 |
| 20260509083504 | 47 | 109 | 0.0 | 0.9 | 0.01 | 0.24 | 0.03 | 95 | 1010.6 |
| 20260509083004 | 47 | 109 | 0.0 | 0.9 | 0.00 | 0.23 | 0.02 | 95 | 1010.6 |
| 20260509082526 | 47 | 0 | 0.0 | 0.0 | 0.00 | 0.23 | 0.02 | 95 | 1010.6 |
| 20260509082005 | 47 | 0 | 0.0 | 0.0 | 0.00 | 0.23 | 0.02 | 95 | 1010.6 |
| 20260509081504 | 47 | 0 | 0.0 | 0.0 | 0.00 | 0.23 | 0.02 | 94 | 1010.6 |
| 20260509081004 | 47 | 0 | 0.0 | 0.0 | 0.00 | 0.23 | 0.02 | 94 | 1010.6 |
| 20260509080504 | 47 | 337 | 0.9 | 2.6 | 0.00 | 0.23 | 0.02 | 94 | 1010.6 |
| 20260509080005 | 47 | 332 | 0.9 | 3.5 | 0.00 | 0.23 | 0.02 | 94 | 1010.6 |
| 20260509075505 | 47 | 330 | 0.0 | 3.5 | 0.00 | 0.23 | 0.02 | 94 | 1010.6 |
| 20260509075004 | 47 | 0 | 0.0 | 0.0 | 0.00 | 0.23 | 0.02 | 94 | 1010.6 |
| 20260509074504 | 47 | 0 | 0.0 | 0.0 | 0.00 | 0.23 | 0.02 | 94 | 1010.6 |
| 20260509074004 | 47 | 0 | 0.0 | 0.0 | 0.00 | 0.23 | 0.02 | 94 | 1010.6 |
| 20260509073504 | 48 | 0 | 0.0 | 0.0 | 0.00 | 0.23 | 0.02 | 94 | 1010.6 |
| 20260509073025 | 48 | 0 | 0.0 | 0.0 | 0.00 | 0.23 | 0.02 | 94 | 1010.6 |
| 20260509072504 | 48 | 0 | 0.0 | 0.0 | 0.00 | 0.23 | 0.02 | 94 | 1010.6 |
| 20260509072025 | 48 | 0 | 0.0 | 0.0 | 0.00 | 0.23 | 0.02 | 94 | 1010.6 |
| 20260509071504 | 48 | 0 | 0.0 | 0.0 | 0.00 | 0.23 | 0.02 | 94 | 1010.6 |
| 20260509071025 | 48 | 0 | 0.0 | 0.0 | 0.00 | 0.23 | 0.02 | 94 | 1010.6 |
| 20260509070505 | 48 | 0 | 0.0 | 0.0 | 0.00 | 0.23 | 0.02 | 94 | 1010.6 |
| 20260509070005 | 48 | 0 | 0.0 | 0.0 | 0.00 | 0.23 | 0.02 | 94 | 1010.6 |
| 20260509065525 | 48 | 0 | 0.0 | 0.0 | 0.00 | 0.23 | 0.02 | 94 | 1010.6 |
| 20260509065005 | 48 | 0 | 0.0 | 0.0 | 0.00 | 0.23 | 0.02 | 94 | 1010.6 |
| 20260509064504 | 48 | 0 | 0.0 | 0.0 | 0.00 | 0.23 | 0.02 | 94 | 1010.6 |
| 20260509064004 | 48 | 0 | 0.0 | 0.0 | 0.00 | 0.23 | 0.02 | 94 | 1010.6 |
| 20260509063504 | 48 | 0 | 0.0 | 0.0 | 0.00 | 0.23 | 0.02 | 94 | 1010.6 |
| 20260509063005 | 48 | 0 | 0.0 | 0.0 | 0.00 | 0.23 | 0.02 | 94 | 1010.6 |
| 20260509062526 | 48 | 0 | 0.0 | 0.0 | 0.00 | 0.23 | 0.02 | 94 | 1010.6 |
| 20260509062004 | 48 | 0 | 0.0 | 0.0 | 0.00 | 0.23 | 0.02 | 94 | 1010.6 |
| 20260509061504 | 48 | 0 | 0.0 | 0.0 | 0.00 | 0.23 | 0.02 | 94 | 1010.6 |
| 20260509061004 | 48 | 0 | 0.0 | 0.0 | 0.00 | 0.23 | 0.02 | 94 | 1010.6 |
| 20260509060504 | 48 | 0 | 0.0 | 0.0 | 0.00 | 0.23 | 0.02 | 94 | 1010.6 |
| 20260509060026 | 48 | 0 | 0.0 | 0.0 | 0.00 | 0.23 | 0.02 | 94 | 1010.6 |
| 20260509055504 | 48 | 0 | 0.0 | 0.0 | 0.01 | 0.23 | 0.02 | 94 | 1010.6 |
| 20260509055004 | 48 | 0 | 0.0 | 0.0 | 0.01 | 0.23 | 0.02 | 94 | 1010.6 |
| 20260509054525 | 48 | 87 | 0.9 | 1.7 | 0.01 | 0.23 | 0.02 | 94 | 1010.6 |
| 20260509054004 | 48 | 69 | 0.9 | 2.6 | 0.01 | 0.23 | 0.02 | 94 | 1010.6 |
| 20260509053525 | 48 | 50 | 0.9 | 2.6 | 0.01 | 0.23 | 0.02 | 94 | 1010.6 |
| 20260509053004 | 48 | 35 | 0.9 | 2.6 | 0.01 | 0.23 | 0.02 | 94 | 1010.6 |
| 20260509052504 | 48 | 48 | 0.0 | 2.6 | 0.01 | 0.23 | 0.02 | 94 | 1010.6 |
| 20260509052004 | 48 | 47 | 0.0 | 2.6 | 0.02 | 0.23 | 0.02 | 94 | 1010.6 |
| 20260509051505 | 48 | 46 | 0.0 | 1.7 | 0.02 | 0.23 | 0.02 | 94 | 1010.6 |
| 20260509051025 | 48 | 72 | 0.0 | 1.7 | 0.02 | 0.23 | 0.02 | 94 | 1010.6 |
| 20260509050525 | 48 | 109 | 0.0 | 0.9 | 0.02 | 0.23 | 0.02 | 93 | 1010.6 |
| 20260509050004 | 48 | 109 | 0.0 | 1.7 | 0.02 | 0.23 | 0.02 | 93 | 1010.6 |
| 20260509045504 | 48 | 109 | 0.0 | 1.7 | 0.01 | 0.22 | 0.01 | 93 | 1010.6 |
| 20260509045004 | 48 | 0 | 0.0 | 0.0 | 0.01 | 0.22 | 0.01 | 93 | 1010.7 |
| 20260509044504 | 48 | 0 | 0.0 | 0.0 | 0.02 | 0.22 | 0.01 | 93 | 1010.7 |
| 20260509044004 | 48 | 0 | 0.0 | 0.0 | 0.02 | 0.22 | 0.01 | 93 | 1010.7 |
| 20260509043505 | 48 | 0 | 0.0 | 0.0 | 0.03 | 0.22 | 0.01 | 93 | 1010.7 |
| 20260509043004 | 48 | 0 | 0.0 | 0.0 | 0.03 | 0.22 | 0.01 | 93 | 1010.9 |
| 20260509042505 | 48 | 0 | 0.0 | 0.0 | 0.03 | 0.22 | 0.01 | 93 | 1010.9 |
| 20260509042004 | 48 | 0 | 0.0 | 0.0 | 0.02 | 0.21 | 0.00 | 93 | 1011.0 |
| 20260509041504 | 48 | 0 | 0.0 | 0.0 | 0.03 | 0.21 | 0.00 | 93 | 1011.1 |
| 20260509041004 | 48 | 0 | 0.0 | 0.0 | 0.03 | 0.21 | 0.00 | 93 | 1011.1 |
| 20260509040504 | 48 | 0 | 0.0 | 0.0 | 0.03 | 0.21 | 0.00 | 93 | 1011.2 |
| 20260509040008 | 48 | 0 | 0.0 | 0.0 | 0.04 | 0.21 | 0.00 | 93 | 1011.3 |
| 20260509035504 | 48 | 290 | 0.0 | 0.9 | 0.04 | 0.21 | 0.21 | 93 | 1011.4 |
| 20260509035004 | 49 | 290 | 0.0 | 0.9 | 0.04 | 0.21 | 0.21 | 93 | 1011.4 |
| 20260509034525 | 49 | 293 | 0.0 | 0.9 | 0.03 | 0.20 | 0.20 | 93 | 1011.5 |
| 20260509034004 | 49 | 0 | 0.0 | 0.0 | 0.03 | 0.20 | 0.20 | 93 | 1011.4 |
| 20260509033504 | 49 | 0 | 0.0 | 0.0 | 0.03 | 0.19 | 0.19 | 93 | 1011.3 |
| 20260509033004 | 49 | 0 | 0.9 | 0.0 | 0.03 | 0.19 | 0.19 | 93 | 1011.3 |
| 20260509032504 | 49 | 175 | 0.9 | 2.6 | 0.03 | 0.19 | 0.19 | 92 | 1011.3 |
| 20260509032004 | 49 | 174 | 0.0 | 2.6 | 0.04 | 0.19 | 0.19 | 93 | 1011.5 |
| 20260509031504 | 49 | 141 | 0.0 | 0.9 | 0.03 | 0.18 | 0.18 | 92 | 1011.4 |
| 20260509031004 | 49 | 0 | 0.0 | 0.0 | 0.03 | 0.18 | 0.18 | 92 | 1011.4 |
| 20260509030504 | 49 | 0 | 0.0 | 0.0 | 0.03 | 0.18 | 0.18 | 92 | 1011.4 |
| 20260509030004 | 49 | 0 | 0.0 | 0.0 | 0.02 | 0.17 | 0.17 | 92 | 1011.4 |
| 20260509025504 | 49 | 0 | 0.0 | 0.0 | 0.02 | 0.17 | 0.17 | 92 | 1011.4 |
| 20260509025004 | 49 | 0 | 0.0 | 0.0 | 0.02 | 0.17 | 0.17 | 92 | 1011.4 |
| 20260509024505 | 49 | 0 | 0.0 | 0.0 | 0.02 | 0.17 | 0.17 | 92 | 1011.4 |
| 20260509024004 | 49 | 0 | 0.0 | 0.0 | 0.02 | 0.17 | 0.17 | 92 | 1011.4 |
| 20260509023504 | 49 | 0 | 0.0 | 0.0 | 0.01 | 0.16 | 0.16 | 92 | 1011.5 |
| 20260509023004 | 49 | 0 | 0.0 | 0.0 | 0.01 | 0.16 | 0.16 | 92 | 1011.4 |
| 20260509022505 | 49 | 0 | 0.0 | 0.0 | 0.01 | 0.16 | 0.16 | 92 | 1011.5 |
| 20260509022005 | 49 | 0 | 0.0 | 0.0 | 0.00 | 0.15 | 0.15 | 92 | 1011.4 |
| 20260509021525 | 49 | 0 | 0.0 | 0.0 | 0.00 | 0.15 | 0.15 | 91 | 1011.4 |
| 20260509021004 | 49 | 0 | 0.0 | 0.0 | 0.00 | 0.15 | 0.15 | 91 | 1011.3 |
| 20260509020504 | 49 | 0 | 0.0 | 0.0 | 0.00 | 0.15 | 0.15 | 91 | 1011.3 |
| 20260509020004 | 49 | 0 | 0.0 | 0.0 | 0.00 | 0.15 | 0.15 | 91 | 1011.3 |
| 20260509015504 | 49 | 0 | 0.0 | 0.0 | 0.00 | 0.15 | 0.15 | 91 | 1011.3 |
| 20260509015004 | 49 | 114 | 0.9 | 1.7 | 0.00 | 0.15 | 0.15 | 91 | 1011.1 |
| 20260509014525 | 49 | 120 | 0.0 | 1.7 | 0.00 | 0.15 | 0.15 | 91 | 1011.0 |
| 20260509014004 | 49 | 125 | 0.0 | 1.7 | 0.00 | 0.15 | 0.15 | 91 | 1011.0 |
| 20260509013504 | 50 | 0 | 0.0 | 0.0 | 0.00 | 0.15 | 0.15 | 91 | 1011.0 |
| 20260509013004 | 50 | 143 | 0.9 | 2.6 | 0.00 | 0.15 | 0.15 | 90 | 1010.9 |
| 20260509012505 | 50 | 74 | 0.9 | 3.5 | 0.00 | 0.15 | 0.15 | 90 | 1010.9 |
| 20260509012004 | 50 | 41 | 0.0 | 3.5 | 0.00 | 0.15 | 0.15 | 90 | 1010.7 |
| 20260509011504 | 50 | 25 | 0.0 | 2.6 | 0.00 | 0.15 | 0.15 | 90 | 1010.7 |
| 20260509011004 | 50 | 0 | 0.0 | 0.0 | 0.00 | 0.15 | 0.15 | 90 | 1010.7 |
| 20260509010504 | 50 | 0 | 0.0 | 0.0 | 0.00 | 0.15 | 0.15 | 90 | 1010.9 |
| 20260509010004 | 50 | 0 | 0.0 | 0.0 | 0.00 | 0.15 | 0.15 | 89 | 1010.9 |
| 20260509005504 | 50 | 0 | 0.0 | 0.0 | 0.00 | 0.15 | 0.15 | 89 | 1010.7 |
| 20260509005005 | 50 | 0 | 0.0 | 0.0 | 0.00 | 0.15 | 0.15 | 89 | 1010.6 |
| 20260509004504 | 50 | 0 | 0.0 | 0.0 | 0.01 | 0.15 | 0.15 | 89 | 1010.6 |
| 20260509004004 | 50 | 0 | 0.0 | 0.0 | 0.01 | 0.18 | 0.15 | 89 | 1010.6 |
| 20260509003505 | 50 | 0 | 0.0 | 0.0 | 0.01 | 0.18 | 0.15 | 88 | 1010.6 |
| 20260509003005 | 50 | 0 | 0.0 | 0.0 | 0.01 | 0.18 | 0.15 | 88 | 1010.6 |
| 20260509002525 | 51 | 0 | 0.0 | 0.0 | 0.01 | 0.18 | 0.15 | 88 | 1010.6 |
| 20260509002004 | 51 | 0 | 0.0 | 0.0 | 0.01 | 0.18 | 0.15 | 87 | 1010.6 |
| 20260509001504 | 51 | 0 | 0.0 | 0.0 | 0.01 | 0.18 | 0.15 | 87 | 1010.6 |
| 20260509001004 | 51 | 0 | 0.0 | 0.0 | 0.02 | 0.18 | 0.15 | 87 | 1010.6 |
| 20260509000524 | 51 | 153 | 0.9 | 0.9 | 0.02 | 0.18 | 0.15 | 86 | 1010.6 |
| 20260509000004 | 51 | 142 | 0.9 | 1.7 | 0.02 | 0.18 | 0.15 | 86 | 1010.6 |
| 20260508235504 | 51 | 136 | 0.9 | 2.6 | 0.02 | 0.18 | 0.15 | 86 | 1010.6 |
| 20260508235004 | 51 | 133 | 0.0 | 2.6 | 0.02 | 0.18 | 0.15 | 85 | 1010.6 |
| 20260508234525 | 52 | 140 | 0.0 | 0.9 | 0.01 | 0.17 | 0.14 | 84 | 1010.6 |
| 20260508234003 | 52 | 332 | 0.0 | 2.6 | 0.01 | 0.17 | 0.14 | 83 | 1010.6 |
| 20260508233504 | 52 | 332 | 0.0 | 2.6 | 0.01 | 0.17 | 0.14 | 83 | 1010.6 |
| 20260508233005 | 52 | 311 | 0.0 | 1.7 | 0.01 | 0.17 | 0.14 | 82 | 1010.6 |
| 20260508232504 | 52 | 269 | 0.0 | 0.9 | 0.01 | 0.17 | 0.14 | 82 | 1010.6 |
| 20260508232005 | 52 | 271 | 0.9 | 0.9 | 0.01 | 0.17 | 0.14 | 82 | 1010.6 |
| 20260508231504 | 52 | 268 | 0.9 | 2.6 | 0.01 | 0.17 | 0.14 | 81 | 1010.6 |
| 20260508231025 | 52 | 270 | 0.9 | 2.6 | 0.00 | 0.16 | 0.13 | 80 | 1010.6 |
| 20260508230524 | 52 | 246 | 0.9 | 6.1 | 0.00 | 0.16 | 0.13 | 80 | 1010.6 |
| 20260508230004 | 53 | 242 | 1.7 | 6.1 | 0.00 | 0.16 | 0.13 | 80 | 1010.6 |
| 20260508225505 | 53 | 238 | 1.7 | 4.3 | 0.00 | 0.16 | 0.13 | 80 | 1010.6 |
| 20260508225005 | 53 | 231 | 1.7 | 7.0 | 0.00 | 0.16 | 0.13 | 79 | 1010.6 |
| 20260508224525 | 53 | 232 | 1.7 | 7.0 | 0.00 | 0.16 | 0.13 | 79 | 1010.6 |
| 20260508224004 | 53 | 230 | 1.7 | 6.1 | 0.00 | 0.16 | 0.13 | 79 | 1010.6 |
| 20260508223504 | 53 | 229 | 0.9 | 6.1 | 0.00 | 0.16 | 0.13 | 79 | 1010.6 |
| 20260508223004 | 53 | 237 | 0.9 | 4.3 | 0.00 | 0.16 | 0.13 | 80 | 1010.6 |
| 20260508222504 | 53 | 239 | 0.9 | 3.5 | 0.00 | 0.16 | 0.13 | 80 | 1010.6 |
| 20260508222004 | 53 | 247 | 0.9 | 2.6 | 0.00 | 0.16 | 0.13 | 80 | 1010.6 |
| 20260508221504 | 54 | 242 | 0.9 | 4.3 | 0.00 | 0.16 | 0.13 | 80 | 1010.6 |
| 20260508221004 | 54 | 238 | 0.9 | 4.3 | 0.00 | 0.16 | 0.13 | 80 | 1010.6 |
| 20260508220504 | 54 | 237 | 1.7 | 4.3 | 0.00 | 0.16 | 0.13 | 80 | 1010.6 |
| 20260508220025 | 54 | 243 | 2.6 | 6.1 | 0.00 | 0.16 | 0.13 | 80 | 1010.6 |
| 20260508215504 | 54 | 239 | 3.5 | 7.8 | 0.00 | 0.16 | 0.13 | 80 | 1010.6 |
| 20260508215004 | 54 | 232 | 3.5 | 7.8 | 0.00 | 0.16 | 0.13 | 81 | 1010.6 |
| 20260508214504 | 54 | 239 | 3.5 | 7.8 | 0.00 | 0.16 | 0.13 | 81 | 1010.6 |
| 20260508214004 | 54 | 237 | 2.6 | 8.7 | 0.00 | 0.16 | 0.13 | 83 | 1010.6 |
| 20260508213504 | 54 | 228 | 2.6 | 9.6 | 0.00 | 0.16 | 0.13 | 84 | 1010.6 |
| 20260508213005 | 54 | 226 | 1.7 | 9.6 | 0.00 | 0.16 | 0.13 | 86 | 1010.6 |
| 20260508212504 | 54 | 224 | 1.7 | 7.0 | 0.00 | 0.16 | 0.13 | 87 | 1010.6 |
| 20260508212003 | 53 | 221 | 1.7 | 7.0 | 0.00 | 0.16 | 0.13 | 88 | 1010.6 |
| 20260508211503 | 53 | 221 | 1.7 | 5.2 | 0.00 | 0.16 | 0.13 | 88 | 1010.6 |
| 20260508211004 | 53 | 230 | 1.7 | 4.3 | 0.00 | 0.16 | 0.13 | 89 | 1010.6 |
| 20260508210503 | 52 | 233 | 0.9 | 5.2 | 0.00 | 0.16 | 0.13 | 88 | 1010.6 |
| 20260508210004 | 52 | 234 | 0.0 | 5.2 | 0.00 | 0.16 | 0.13 | 88 | 1010.6 |
| 20260508205504 | 52 | 240 | 0.0 | 1.7 | 0.01 | 0.16 | 0.13 | 88 | 1010.6 |
| 20260508205004 | 52 | 237 | 0.0 | 1.7 | 0.01 | 0.16 | 0.13 | 87 | 1010.6 |
| 20260508204504 | 52 | 0 | 0.0 | 0.0 | 0.02 | 0.16 | 0.13 | 87 | 1010.6 |
| 20260508204005 | 52 | 262 | 0.0 | 0.9 | 0.02 | 0.16 | 0.13 | 87 | 1010.6 |
| 20260508203503 | 52 | 226 | 0.9 | 0.9 | 0.02 | 0.16 | 0.13 | 87 | 1010.6 |
| 20260508203024 | 52 | 212 | 0.9 | 3.5 | 0.03 | 0.16 | 0.13 | 87 | 1010.6 |
| 20260508202503 | 52 | 208 | 0.0 | 3.5 | 0.04 | 0.16 | 0.13 | 87 | 1010.6 |
| 20260508202025 | 52 | 201 | 0.0 | 2.6 | 0.08 | 0.16 | 0.13 | 86 | 1010.6 |
| 20260508201504 | 52 | 0 | 0.0 | 0.0 | 0.10 | 0.16 | 0.13 | 86 | 1010.6 |
| 20260508201004 | 52 | 227 | 0.9 | 1.7 | 0.12 | 0.16 | 0.13 | 85 | 1010.6 |
| 20260508200525 | 52 | 270 | 1.7 | 2.6 | 0.12 | 0.16 | 0.13 | 84 | 1010.6 |
| 20260508200004 | 52 | 275 | 1.7 | 3.5 | 0.12 | 0.16 | 0.13 | 84 | 1010.7 |
| 20260508195504 | 52 | 283 | 2.6 | 4.3 | 0.11 | 0.15 | 0.12 | 83 | 1010.8 |
| 20260508195004 | 52 | 286 | 3.5 | 4.3 | 0.11 | 0.15 | 0.12 | 82 | 1010.9 |
| 20260508194525 | 53 | 282 | 2.6 | 6.1 | 0.10 | 0.14 | 0.11 | 81 | 1011.1 |
| 20260508194004 | 53 | 282 | 1.7 | 6.1 | 0.10 | 0.14 | 0.11 | 80 | 1011.1 |
| 20260508193504 | 54 | 275 | 2.6 | 6.1 | 0.10 | 0.14 | 0.11 | 78 | 1011.1 |
| 20260508193003 | 54 | 263 | 2.6 | 4.3 | 0.09 | 0.13 | 0.10 | 77 | 1011.1 |
| 20260508192503 | 55 | 256 | 2.6 | 7.0 | 0.08 | 0.12 | 0.09 | 75 | 1011.2 |
| 20260508192004 | 56 | 249 | 2.6 | 7.0 | 0.04 | 0.08 | 0.05 | 72 | 1011.2 |
| 20260508191524 | 57 | 244 | 2.6 | 6.1 | 0.02 | 0.06 | 0.03 | 69 | 1011.0 |
| 20260508191004 | 58 | 242 | 2.6 | 4.3 | 0.00 | 0.04 | 0.01 | 66 | 1010.6 |
| 20260508190503 | 58 | 241 | 3.5 | 8.7 | 0.00 | 0.04 | 0.01 | 63 | 1010.6 |
| 20260508190004 | 58 | 236 | 3.5 | 8.7 | 0.00 | 0.04 | 0.01 | 62 | 1010.6 |